Regional Weather Roundup
Issued by NWS San Diego, CA

Home | Current Version | Previous Version | Text Only | Print | Product List | Glossary On
Versions: 1 2 3 4 5 6 7 8 9 10 11 12 13 14 15 16 17 18 19 20 21 22 23 24 25 26 27 28 29 30 31 32 33 34 35 36 37 38 39 40 41 42 43 44 45 46 47
000
ASUS46 KSGX 060911
RWRSGX
100 AM PST FRI MAR 06 2015

NOTE: "FAIR" INDICATES FEW OR NO CLOUDS BELOW 12,000 FEET WITH NO
SIGNIFICANT WEATHER AND/OR OBSTRUCTIONS TO VISIBILITY.

CAZ042-043-060-061-PZZ750-775-061000-

GREATER SAN DIEGO AREA

CITY           SKY/WX    TMP DP  RH WIND       PRES   REMARKS
LINDBERGH FLD  CLEAR     57  36  45 CALM      30.15F
NATIONAL CITY    N/A     52  39  61 CALM      30.14F
IMPERIAL BEACH CLEAR     47  40  76 SE5       30.15S
BROWN FIELD    CLEAR     51  30  44 CALM      30.14S
MIRAMAR MCAS   CLEAR     45  32  60 E5        30.14S
MONTGOMERY FLD CLEAR     52  33  48 CALM      30.14F

$$

NORTH SAN DIEGO COUNTY

CITY           SKY/WX    TMP DP  RH WIND       PRES   REMARKS
CAMP PENDLETON CLEAR     40  33  76 CALM      30.13F
OCEANSIDE AP   CLEAR     41  35  79 CALM      30.13F
OCEANSIDE HBR    N/A     48  38  67 NE2       30.16S
VISTA            N/A     47  34  61 CALM      30.13S
CARLSBAD       CLEAR     53  33  46 CALM      30.12F
DEL MAR          N/A     55  44  67 CALM      30.16S
LA JOLLA SCRIP   N/A     56  34  43 CALM      30.11F
FALLBROOK        N/A     56  28  34 CALM      30.15S
ESCONDIDO        N/A     49  35  58 CALM      30.15F
SAN MARCOS       N/A     56  32  40 CALM      30.12F
POWAY            N/A     46  31  56 CALM      30.16S

$$

EAST SAN DIEGO COUNTY

CITY           SKY/WX    TMP DP  RH WIND       PRES   REMARKS
RAMONA         CLEAR     40  26  57 CALM      30.14F
SANTEE LAKES     N/A     45  33  62 CALM      30.16S
LA MESA          N/A     51  33  50 CALM      30.09S
JAMUL            N/A     45  27  49 CALM      30.15S
DESCANSO N       N/A     57   7  13 E12       30.03S
MT. LAGUNA OBS   N/A     41   3  20 NE20      29.80S
CAMPO            N/A     57   9  14 NE17G26   30.12F

$$

ORANGE COUNTY AND THE LOS ANGELES BASIN

CITY           SKY/WX    TMP DP  RH WIND       PRES   REMARKS
JOHN WAYNE AP  CLEAR     56  31  38 CALM      30.14S
LAKE FOREST FR   N/A     60  12  15 SE5       30.04S
SANTA ANA        N/A     51  35  53 CALM      30.09F
HUNTINGTON BCH   N/A     51  33  52 CALM      30.15F
LOS ALAMITOS   FAIR      54  29  38 N5        30.13F
FULLERTON      CLEAR     54  28  36 NW5       30.13F
LONG BEACH     CLEAR     55  33  43 NW5       30.14F
L.A. AP        CLEAR     54  35  48 E3        30.16S
L.A. DOWNTOWN  CLEAR     55  32  41 CALM      30.15S

$$

THE INLAND EMPIRE

CITY           SKY/WX    TMP DP  RH WIND       PRES   REMARKS
CORONA         CLEAR     57  20  24 SE6       30.16F
CHINO          CLEAR     52  31  44 NE3       30.17S
ONTARIO        CLEAR     53  26  35 CALM      30.16F
RIVERSIDE AP   CLEAR     50  29  44 E3        30.18S
RIV CYN CREST    N/A     53  35  50 S2          N/A
MORENO VALLEY    N/A     55  25  31 CALM      29.37F
MARCH ARB      CLEAR     48  21  34 NE9       30.18S
HORSETHIEF CYN   N/A     55  18  23 S3        30.17S
PERRIS           N/A     61  24  23 SE3         N/A
MENIFEE          N/A     49  31  50 CALM      30.26S
HEMET EAST       N/A     53   8  16 CALM      30.20S
FRENCH VALLEY  FAIR      43  30  61 CALM      30.18S
TEMECULA         N/A     51  32  47 W2        30.13S

$$

SAN BERNARDINO AND RIVERSIDE COUNTY MOUNTAINS

CITY           SKY/WX    TMP DP  RH WIND       PRES   REMARKS
BIG BEAR AP    CLEAR     21  10  63 E3        30.36F
ANGELUS OAKS     N/A     43   6  21 CALM      30.20F
PINE COVE        N/A     46  -4  12 N2        30.22F

$$

SOUTHERN DESERT INCLUDING THE COACHELLA VALLEY

CITY           SKY/WX    TMP DP  RH WIND       PRES   REMARKS
PALM SPRINGS   CLEAR     64  17  16 W7        30.20F
THOUSAND PALMS   N/A     58  26  28 W2        30.18F
PALM DESERT      N/A     57  27  31 W1          N/A
THERMAL        CLEAR     54  26  34 N5        30.15F
BLYTHE         CLEAR     55  30  38 N6        30.17F
IMPERIAL AP    CLEAR     49  35  58 W10       30.14F
EL CENTRO NAS  CLEAR     50  32  50 W12       30.15F
YUMA AZ        CLEAR     62  27  26 N12       30.12F

$$

UPPER DESERT

CITY           SKY/WX    TMP DP  RH WIND       PRES   REMARKS
VICTORVILLE AP   N/A     36  12  38 CALM      30.30S
HESPERIA         N/A     38  19  46 CALM      30.46F
APPLE VALLEY     N/A     38  15  39 CALM      30.34S
PALMDALE       CLEAR     38  22  52 W3        30.30F
LANCASTER      CLEAR     31  22  69 W5        30.31S WCI  26
EDWARDS AFB    CLEAR     37  20  51 E3        30.28F
DAGGETT        CLEAR     43  19  38 W6        30.29F
29 PALMS N     CLEAR     49  21  33 W13       30.33F
NEEDLES        CLEAR     58  23  26 N7        30.23F

$$

REGIONAL REPORTS

CITY           SKY/WX    TMP DP  RH WIND       PRES   REMARKS
SANTA BARBARA  CLEAR     47  36  65 CALM      30.17F
SANDBERG       CLEAR     46  14  27 NE10      30.31S
MT. WILSON       N/A     41 -15   9 MISG        N/A
LAS VEGAS NV   CLEAR     48  31  51 S10       30.27S
PHOENIX AZ     CLEAR     58  26  29 E3        30.16S
TIJUANA        CLEAR     50  32  50 CALM      30.17S
ENSENADA NW      N/A     59  32  36 E6        30.11F

$$

OFFSHORE ISLANDS

CITY           SKY/WX    TMP DP  RH WIND       PRES   REMARKS
CATALINA ARPT  CLEAR     59  15  18 NE10      30.18F
SAN NICOLAS IS CLEAR    N/A N/A N/A NW13      30.17F

$$

MARINE AND OFFSHORE BUOY REPORTS

STATION/POSITION SKY/WX   TEMP    WIND        PRES    SWELL
                          AIR SEA DIR/SP/G            HT/PER/DIR
                          (F)     (DEG/KT/KT) (MB)    (FT/S/D)
TANNER BANKS               62 61  340/ 12/ 14 1021.2F   3/190/15
S CLEMENTE BASIN           62 62  330/ 10/ 12 1020.6F   3/280/13
SAN NICOLAS IS.               60                N/A     3/190/14
SO. S. ROSA ISLA           60 60  340/ 12/ 14 1021.3F   5/15
W. S. BARBARA CH           59 59  300/  8/  8 1021.4F   3/210/14
S. MONICA BASIN            62 62  320/ 12/ 14 1021.2F   3/180/14
S PEDRO CHANNEL               61                N/A     2/160/15
DANA POINT                    61                N/A     3/190/15
CMP PENDLETON NS              62                N/A     3/220/15
OCEANSIDE OFFSHR              61                N/A     3/190/15
TORREY PINES OTR              62                N/A     2/190/15
LA JOLLA 1                 60 63  170/  2/  3 1020.7S
MISSION BAY BUOY              62                N/A     3/200/14
SAN DIEGO BAY                 65              1021.4R
POINT LOMA SOUTH              63                N/A     3/190/14

$$



USA.gov is the U.S. government's official web portal to all federal, state and local government web resources and services.